| time (UTC) | temp F | wind direction | speed knots | gust knots | rain 1hr in | rain 24hr in | rain mn in | humidity % | barometer mb |
| 20260507010814 | 53 | 274 | 6.1 | 7.8 | 0.00 | 0.27 | 0.27 | 96 | 1007.3 |
| 20260507010310 | 53 | 304 | 5.2 | 8.7 | 0.00 | 0.27 | 0.27 | 96 | 1007.5 |
| 20260507005807 | 53 | 309 | 6.1 | 7.8 | 0.00 | 0.27 | 0.27 | 96 | 1007.2 |
| 20260507005305 | 53 | 311 | 6.1 | 8.7 | 0.02 | 0.27 | 0.27 | 96 | 1007.2 |
| 20260507004800 | 53 | 288 | 6.1 | 9.6 | 0.02 | 0.27 | 0.27 | 96 | 1007.4 |
| 20260507004258 | 53 | 306 | 9.6 | 10.4 | 0.00 | 0.27 | 0.27 | 96 | 1007.1 |
| 20260507003754 | 53 | 306 | 7.8 | 11.3 | 0.00 | 0.27 | 0.27 | 96 | 1007.2 |
| 20260507003249 | 53 | 308 | 9.6 | 12.2 | 0.05 | 0.27 | 0.27 | 96 | 1007.0 |
| 20260507002745 | 53 | 282 | 8.7 | 13.9 | 0.12 | 0.26 | 0.26 | 96 | 1006.9 |
| 20260507002242 | 54 | 319 | 11.3 | 13.9 | 0.33 | 0.26 | 0.26 | 95 | 1006.9 |
| 20260507001739 | 55 | 294 | 9.6 | 13.9 | 0.26 | 0.24 | 0.24 | 95 | 1006.7 |
| 20260507001236 | 58 | 280 | 12.2 | 12.2 | 0.00 | 0.20 | 0.20 | 96 | 1006.7 |
| 20260507000732 | 58 | 229 | 8.7 | 10.4 | 0.00 | 0.20 | 0.20 | 96 | 1006.4 |
| 20260507000228 | 58 | 204 | 8.7 | 10.4 | 0.00 | 0.20 | 0.20 | 96 | 1006.2 |
| 20260506235725 | 58 | 236 | 2.6 | 10.4 | 0.00 | 0.20 | 0.20 | 97 | 1006.1 |
| 20260506235220 | 58 | 202 | 5.2 | 8.7 | 0.00 | 0.20 | 0.20 | 97 | 1006.4 |
| 20260506234718 | 58 | 213 | 6.1 | 9.6 | 0.00 | 0.20 | 0.20 | 97 | 1006.0 |
| 20260506234215 | 58 | 241 | 5.2 | 9.6 | 0.00 | 0.20 | 0.20 | 97 | 1006.2 |
| 20260506233712 | 58 | 216 | 9.6 | 13.0 | 0.00 | 0.20 | 0.20 | 96 | 1006.1 |
| 20260506233209 | 58 | 195 | 6.1 | 9.6 | 0.05 | 0.20 | 0.20 | 96 | 1006.2 |
| 20260506232706 | 58 | 231 | 5.2 | 8.7 | 0.05 | 0.20 | 0.20 | 96 | 1006.2 |
| 20260506232200 | 58 | 240 | 6.1 | 13.0 | 0.02 | 0.19 | 0.19 | 96 | 1006.0 |
| 20260506231658 | 58 | 210 | 16.5 | 16.5 | 0.02 | 0.19 | 0.19 | 96 | 1006.2 |
| 20260506231156 | 58 | 225 | 8.7 | 14.8 | 0.02 | 0.19 | 0.19 | 95 | 1005.8 |
| 20260506230652 | 59 | 203 | 7.8 | 13.9 | 0.00 | 0.18 | 0.18 | 95 | 1006.0 |
| 20260506230149 | 59 | 213 | 9.6 | 16.5 | 0.00 | 0.18 | 0.18 | 95 | 1005.8 |
| 20260506225646 | 59 | 195 | 9.6 | 14.8 | 0.00 | 0.18 | 0.18 | 95 | 1005.7 |
| 20260506225143 | 59 | 192 | 10.4 | 12.2 | 0.00 | 0.18 | 0.18 | 95 | 1005.8 |
| 20260506224639 | 59 | 204 | 7.0 | 13.9 | 0.00 | 0.18 | 0.18 | 94 | 1005.9 |
| 20260506224136 | 59 | 199 | 12.2 | 15.6 | 0.00 | 0.18 | 0.18 | 94 | 1006.0 |
| 20260506223632 | 59 | 188 | 7.0 | 13.0 | 0.00 | 0.18 | 0.18 | 94 | 1006.0 |
| 20260506223128 | 59 | 197 | 8.7 | 13.0 | 0.00 | 0.18 | 0.18 | 94 | 1005.9 |
| 20260506222626 | 59 | 196 | 5.2 | 10.4 | 0.00 | 0.18 | 0.18 | 94 | 1006.1 |
| 20260506222122 | 59 | 221 | 7.8 | 14.8 | 0.00 | 0.18 | 0.18 | 94 | 1006.1 |
| 20260506221619 | 59 | 206 | 8.7 | 15.6 | 0.00 | 0.18 | 0.18 | 94 | 1006.1 |
| 20260506221117 | 59 | 197 | 7.8 | 16.5 | 0.00 | 0.18 | 0.18 | 94 | 1006.2 |
| 20260506220614 | 59 | 218 | 5.2 | 13.9 | 0.00 | 0.18 | 0.18 | 94 | 1006.1 |
| 20260506220109 | 59 | 183 | 11.3 | 13.9 | 0.00 | 0.18 | 0.18 | 94 | 1006.4 |
| 20260506215606 | 59 | 195 | 9.6 | 12.2 | 0.00 | 0.18 | 0.18 | 94 | 1006.2 |
| 20260506215101 | 59 | 184 | 12.2 | 15.6 | 0.00 | 0.18 | 0.18 | 94 | 1006.4 |
| 20260506214559 | 59 | 193 | 7.0 | 13.0 | 0.00 | 0.18 | 0.18 | 94 | 1006.4 |
| 20260506214056 | 59 | 207 | 9.6 | 14.8 | 0.00 | 0.18 | 0.18 | 94 | 1006.4 |
| 20260506213554 | 59 | 199 | 13.0 | 14.8 | 0.00 | 0.18 | 0.18 | 94 | 1006.4 |
| 20260506213051 | 59 | 203 | 10.4 | 14.8 | 0.00 | 0.18 | 0.18 | 94 | 1006.5 |
| 20260506212547 | 59 | 207 | 13.0 | 17.4 | 0.00 | 0.18 | 0.18 | 93 | 1006.4 |
| 20260506212042 | 59 | 192 | 14.8 | 15.6 | 0.00 | 0.18 | 0.18 | 94 | 1006.5 |
| 20260506211538 | 59 | 204 | 17.4 | 21.7 | 0.00 | 0.18 | 0.18 | 94 | 1006.5 |
| 20260506211036 | 59 | 179 | 11.3 | 13.0 | 0.02 | 0.18 | 0.18 | 95 | 1006.5 |
| 20260506210532 | 59 | 199 | 11.3 | 13.0 | 0.02 | 0.18 | 0.18 | 95 | 1006.6 |
| 20260506210029 | 59 | 223 | 7.0 | 12.2 | 0.00 | 0.18 | 0.18 | 95 | 1006.7 |
| 20260506205525 | 59 | 177 | 5.2 | 7.0 | 0.00 | 0.18 | 0.18 | 95 | 1006.5 |
| 20260506205021 | 59 | 184 | 7.8 | 9.6 | 0.00 | 0.18 | 0.18 | 95 | 1006.8 |
| 20260506204519 | 59 | 154 | 9.6 | 13.9 | 0.00 | 0.18 | 0.18 | 95 | 1006.6 |
| 20260506204016 | 59 | 174 | 4.3 | 7.8 | 0.00 | 0.18 | 0.18 | 95 | 1006.8 |
| 20260506203514 | 59 | 145 | 5.2 | 7.8 | 0.02 | 0.18 | 0.18 | 95 | 1006.9 |
| 20260506203010 | 59 | 152 | 5.2 | 7.8 | 0.02 | 0.18 | 0.18 | 95 | 1006.8 |
| 20260506202508 | 59 | 137 | 3.5 | 7.8 | 0.00 | 0.18 | 0.18 | 95 | 1007.0 |
| 20260506202004 | 59 | 178 | 4.3 | 7.8 | 0.00 | 0.18 | 0.18 | 95 | 1007.0 |
| 20260506201502 | 59 | 191 | 8.7 | 9.6 | 0.00 | 0.18 | 0.18 | 95 | 1007.2 |
| 20260506200958 | 59 | 168 | 1.7 | 4.3 | 0.00 | 0.18 | 0.18 | 95 | 1007.3 |
| 20260506200454 | 59 | 193 | 7.8 | 11.3 | 0.00 | 0.18 | 0.18 | 95 | 1007.4 |
| 20260506195951 | 59 | 204 | 5.2 | 10.4 | 0.00 | 0.18 | 0.18 | 95 | 1007.3 |
| 20260506195448 | 59 | 194 | 6.1 | 7.8 | 0.00 | 0.18 | 0.18 | 95 | 1007.2 |
| 20260506194944 | 59 | 209 | 7.0 | 10.4 | 0.02 | 0.18 | 0.18 | 95 | 1007.6 |
| 20260506194442 | 59 | 222 | 6.1 | 9.6 | 0.12 | 0.18 | 0.18 | 95 | 1007.4 |
| 20260506193938 | 59 | 220 | 7.8 | 13.0 | 0.14 | 0.17 | 0.17 | 95 | 1007.7 |
| 20260506193436 | 59 | 218 | 7.8 | 9.6 | 0.09 | 0.16 | 0.16 | 95 | 1007.5 |
| 20260506192932 | 59 | 203 | 5.2 | 9.6 | 0.05 | 0.15 | 0.15 | 94 | 1007.7 |
| 20260506192429 | 59 | 201 | 8.7 | 12.2 | 0.05 | 0.14 | 0.14 | 94 | 1007.6 |
| 20260506191926 | 59 | 215 | 11.3 | 11.3 | 0.05 | 0.14 | 0.14 | 94 | 1007.7 |
| 20260506191422 | 59 | 185 | 1.7 | 9.6 | 0.05 | 0.13 | 0.13 | 94 | 1007.7 |
| 20260506190919 | 59 | 192 | 8.7 | 11.3 | 0.05 | 0.13 | 0.13 | 94 | 1007.8 |
| 20260506190416 | 59 | 196 | 6.1 | 11.3 | 0.05 | 0.13 | 0.13 | 94 | 1007.9 |
| 20260506185913 | 59 | 185 | 9.6 | 13.9 | 0.05 | 0.12 | 0.12 | 93 | 1008.0 |
| 20260506185410 | 59 | 169 | 9.6 | 13.0 | 0.05 | 0.12 | 0.12 | 93 | 1007.8 |
| 20260506184907 | 59 | 200 | 4.3 | 13.9 | 0.00 | 0.11 | 0.11 | 93 | 1007.9 |
| 20260506184404 | 59 | 205 | 13.0 | 16.5 | 0.02 | 0.11 | 0.11 | 93 | 1007.9 |
| 20260506183901 | 59 | 197 | 11.3 | 16.5 | 0.02 | 0.11 | 0.11 | 93 | 1007.9 |
| 20260506183356 | 59 | 184 | 9.6 | 11.3 | 0.02 | 0.11 | 0.11 | 93 | 1008.1 |
| 20260506182854 | 59 | 203 | 9.6 | 12.2 | 0.02 | 0.11 | 0.11 | 93 | 1008.2 |
| 20260506182351 | 59 | 208 | 7.0 | 9.6 | 0.05 | 0.10 | 0.10 | 93 | 1008.2 |
| 20260506181848 | 59 | 180 | 7.0 | 13.0 | 0.07 | 0.10 | 0.10 | 93 | 1008.2 |
| 20260506181346 | 59 | 203 | 12.2 | 13.9 | 0.05 | 0.09 | 0.09 | 92 | 1008.5 |
| 20260506180843 | 59 | 215 | 10.4 | 13.0 | 0.07 | 0.09 | 0.09 | 92 | 1008.7 |
| 20260506180339 | 60 | 207 | 13.0 | 13.9 | 0.07 | 0.09 | 0.09 | 91 | 1008.8 |
| 20260506175835 | 60 | 181 | 9.6 | 13.0 | 0.07 | 0.08 | 0.08 | 91 | 1008.5 |
| 20260506175332 | 60 | 210 | 5.2 | 12.2 | 0.09 | 0.07 | 0.07 | 90 | 1008.6 |
| 20260506174829 | 60 | 223 | 7.0 | 13.0 | 0.07 | 0.07 | 0.07 | 89 | 1008.7 |
| 20260506174327 | 60 | 225 | 8.7 | 12.2 | 0.07 | 0.06 | 0.06 | 89 | 1008.8 |
| 20260506173824 | 60 | 221 | 6.1 | 10.4 | 0.07 | 0.06 | 0.06 | 88 | 1008.8 |
| 20260506173321 | 61 | 213 | 5.2 | 10.4 | 0.05 | 0.05 | 0.05 | 88 | 1008.8 |
| 20260506172818 | 61 | 246 | 4.3 | 9.6 | 0.05 | 0.04 | 0.04 | 88 | 1008.7 |
| 20260506172315 | 61 | 234 | 5.2 | 8.7 | 0.07 | 0.04 | 0.04 | 87 | 1008.9 |
| 20260506171812 | 61 | 203 | 7.8 | 7.8 | 0.07 | 0.04 | 0.04 | 84 | 1008.7 |
| 20260506171309 | 61 | 192 | 5.2 | 9.6 | 0.05 | 0.03 | 0.03 | 83 | 1008.7 |
| 20260506170807 | 62 | 179 | 5.2 | 5.2 | 0.05 | 0.02 | 0.02 | 83 | 1008.6 |
| 20260506170303 | 62 | 187 | 3.5 | 5.2 | 0.07 | 0.02 | 0.02 | 83 | 1008.8 |
| 20260506165802 | 62 | 191 | 6.1 | 6.1 | 0.07 | 0.02 | 0.02 | 82 | 1008.5 |
| 20260506165259 | 62 | 198 | 3.5 | 3.5 | 0.05 | 0.01 | 0.01 | 80 | 1008.7 |
| 20260506164755 | 62 | 194 | 2.6 | 5.2 | 0.02 | 0.00 | 0.00 | 79 | 1008.7 |
| 20260506164252 | 62 | 152 | 6.1 | 7.8 | 0.00 | 0.00 | 0.00 | 78 | 1008.5 |
| 20260506163749 | 63 | 152 | 5.2 | 5.2 | 0.00 | 0.00 | 0.00 | 77 | 1008.7 |
| 20260506163244 | 63 | 144 | 5.2 | 6.1 | 0.00 | 0.00 | 0.00 | 77 | 1009.1 |
| 20260506162740 | 63 | 139 | 5.2 | 7.0 | 0.00 | 0.00 | 0.00 | 77 | 1008.9 |
| 20260506162238 | 62 | 155 | 1.7 | 4.3 | 0.00 | 0.00 | 0.00 | 77 | 1008.9 |
| 20260506161735 | 62 | 177 | 3.5 | 7.0 | 0.00 | 0.00 | 0.00 | 77 | 1009.2 |
| 20260506161232 | 63 | 149 | 6.1 | 8.7 | 0.00 | 0.00 | 0.00 | 76 | 1009.2 |
| 20260506160730 | 63 | 144 | 4.3 | 5.2 | 0.00 | 0.00 | 0.00 | 76 | 1009.2 |
| 20260506160226 | 62 | 181 | 3.5 | 6.1 | 0.00 | 0.00 | 0.00 | 77 | 1009.4 |
| 20260506155725 | 62 | 160 | 4.3 | 6.1 | 0.00 | 0.00 | 0.00 | 77 | 1009.6 |
| 20260506155222 | 62 | 224 | 5.2 | 5.2 | 0.00 | 0.00 | 0.00 | 77 | 1010.1 |
| 20260506153329 | 63 | 219 | 6.1 | 7.0 | 0.00 | 0.00 | 0.00 | 74 | 1010.0 |
| 20260506152826 | 62 | 176 | 3.5 | 6.1 | 0.00 | 0.00 | 0.00 | 75 | 1010.0 |
| 20260506152323 | 62 | 176 | 9.6 | 10.4 | 0.00 | 0.00 | 0.00 | 75 | 1010.4 |
| 20260506151822 | 62 | 192 | 7.0 | 8.7 | 0.00 | 0.00 | 0.00 | 76 | 1010.4 |
| 20260506151318 | 62 | 183 | 7.0 | 9.6 | 0.00 | 0.00 | 0.00 | 76 | 1010.3 |
| 20260506150815 | 62 | 222 | 3.5 | 7.0 | 0.00 | 0.00 | 0.00 | 76 | 1010.1 |
| 20260506150312 | 61 | 168 | 5.2 | 8.7 | 0.00 | 0.00 | 0.00 | 77 | 1010.3 |
| 20260506145809 | 61 | 164 | 5.2 | 9.6 | 0.00 | 0.00 | 0.00 | 77 | 1010.0 |
| 20260506145306 | 61 | 147 | 5.2 | 7.0 | 0.00 | 0.00 | 0.00 | 77 | 1010.1 |
| 20260506144803 | 61 | 151 | 7.0 | 7.0 | 0.00 | 0.00 | 0.00 | 77 | 1009.9 |
| 20260506144259 | 61 | 163 | 5.2 | 7.0 | 0.00 | 0.00 | 0.00 | 77 | 1010.3 |
| 20260506143757 | 61 | 180 | 2.6 | 3.5 | 0.00 | 0.00 | 0.00 | 77 | 1010.3 |
| 20260506143254 | 61 | 159 | 4.3 | 5.2 | 0.00 | 0.00 | 0.00 | 77 | 1010.1 |
| 20260506142753 | 60 | 183 | 4.3 | 5.2 | 0.00 | 0.00 | 0.00 | 77 | 1010.0 |
| 20260506142250 | 60 | 176 | 5.2 | 5.2 | 0.00 | 0.00 | 0.00 | 78 | 1010.1 |
| 20260506141748 | 60 | 208 | 2.6 | 5.2 | 0.00 | 0.00 | 0.00 | 78 | 1010.1 |
| 20260506141246 | 60 | 221 | 2.6 | 6.1 | 0.00 | 0.00 | 0.00 | 78 | 1010.1 |
| 20260506140743 | 60 | 180 | 4.3 | 7.0 | 0.00 | 0.00 | 0.00 | 78 | 1010.4 |
| 20260506140240 | 60 | 194 | 4.3 | 5.2 | 0.00 | 0.00 | 0.00 | 78 | 1010.0 |
| 20260506135737 | 60 | 160 | 3.5 | 4.3 | 0.00 | 0.00 | 0.00 | 78 | 1010.1 |
| 20260506135233 | 60 | 173 | 3.5 | 4.3 | 0.00 | 0.00 | 0.00 | 79 | 1009.9 |
| 20260506134730 | 59 | 189 | 6.1 | 6.1 | 0.00 | 0.00 | 0.00 | 78 | 1010.4 |
| 20260506134227 | 59 | 183 | 2.6 | 5.2 | 0.00 | 0.00 | 0.00 | 79 | 1010.3 |
| 20260506133724 | 59 | 160 | 4.3 | 6.1 | 0.00 | 0.00 | 0.00 | 79 | 1010.5 |
| 20260506133221 | 59 | 161 | 1.7 | 7.0 | 0.00 | 0.00 | 0.00 | 79 | 1010.7 |
| 20260506132718 | 59 | 187 | 3.5 | 4.3 | 0.00 | 0.00 | 0.00 | 79 | 1010.8 |
| 20260506132215 | 59 | 148 | 2.6 | 6.1 | 0.00 | 0.00 | 0.00 | 79 | 1010.8 |
| 20260506131713 | 59 | 221 | 3.5 | 5.2 | 0.00 | 0.00 | 0.00 | 80 | 1010.6 |
| 20260506131208 | 59 | 203 | 4.3 | 5.2 | 0.00 | 0.00 | 0.00 | 80 | 1010.7 |
| 20260506130705 | 58 | 168 | 2.6 | 6.1 | 0.00 | 0.00 | 0.00 | 80 | 1010.6 |
| 20260506130202 | 58 | 155 | 6.1 | 7.8 | 0.00 | 0.00 | 0.00 | 80 | 1010.4 |
| 20260506125700 | 58 | 157 | 6.1 | 8.7 | 0.00 | 0.00 | 0.00 | 80 | 1010.4 |
| 20260506125158 | 58 | 165 | 7.8 | 10.4 | 0.00 | 0.00 | 0.00 | 80 | 1010.5 |
| 20260506124656 | 58 | 160 | 7.0 | 9.6 | 0.00 | 0.00 | 0.00 | 79 | 1010.6 |
| 20260506124154 | 58 | 168 | 4.3 | 7.0 | 0.00 | 0.00 | 0.00 | 79 | 1010.6 |
| 20260506123651 | 58 | 196 | 5.2 | 7.8 | 0.00 | 0.00 | 0.00 | 79 | 1010.6 |
| 20260506123149 | 58 | 165 | 4.3 | 6.1 | 0.00 | 0.00 | 0.00 | 80 | 1010.4 |
| 20260506122646 | 58 | 185 | 3.5 | 7.8 | 0.00 | 0.00 | 0.00 | 79 | 1010.6 |
| 20260506122143 | 58 | 178 | 7.8 | 8.7 | 0.00 | 0.00 | 0.00 | 79 | 1010.6 |
| 20260506121641 | 58 | 199 | 3.5 | 7.8 | 0.00 | 0.00 | 0.00 | 80 | 1010.8 |
| 20260506121137 | 57 | 202 | 4.3 | 7.8 | 0.00 | 0.00 | 0.00 | 80 | 1010.7 |
| 20260506120635 | 57 | 173 | 6.1 | 8.7 | 0.00 | 0.00 | 0.00 | 79 | 1010.8 |
| 20260506120132 | 57 | 175 | 7.8 | 12.2 | 0.00 | 0.00 | 0.00 | 79 | 1010.6 |
| 20260506115631 | 57 | 142 | 4.3 | 9.6 | 0.00 | 0.00 | 0.00 | 79 | 1010.8 |
| 20260506115128 | 57 | 178 | 5.2 | 11.3 | 0.00 | 0.00 | 0.00 | 79 | 1010.7 |
| 20260506114625 | 57 | 196 | 7.8 | 8.7 | 0.00 | 0.00 | 0.00 | 79 | 1010.9 |
| 20260506114123 | 57 | 189 | 6.1 | 7.8 | 0.00 | 0.00 | 0.00 | 79 | 1010.7 |
| 20260506113621 | 57 | 179 | 7.8 | 10.4 | 0.00 | 0.00 | 0.00 | 78 | 1010.8 |
| 20260506113119 | 57 | 174 | 6.1 | 7.8 | 0.00 | 0.00 | 0.00 | 79 | 1011.0 |
| 20260506112615 | 57 | 183 | 4.3 | 7.8 | 0.00 | 0.00 | 0.00 | 79 | 1010.6 |
| 20260506112112 | 57 | 191 | 3.5 | 7.8 | 0.00 | 0.00 | 0.00 | 79 | 1010.7 |
| 20260506111610 | 57 | 183 | 5.2 | 10.4 | 0.00 | 0.00 | 0.00 | 79 | 1010.8 |
| 20260506111108 | 57 | 173 | 6.1 | 7.8 | 0.00 | 0.00 | 0.00 | 79 | 1010.8 |
| 20260506110605 | 57 | 150 | 5.2 | 6.1 | 0.00 | 0.00 | 0.00 | 79 | 1010.8 |
| 20260506105558 | 57 | 172 | 7.8 | 8.7 | 0.00 | 0.00 | 0.00 | 78 | 1010.9 |
| 20260506105055 | 57 | 144 | 5.2 | 11.3 | 0.00 | 0.00 | 0.00 | 77 | 1010.9 |
| 20260506104554 | 57 | 165 | 7.8 | 10.4 | 0.00 | 0.00 | 0.00 | 77 | 1011.2 |
| 20260506104051 | 57 | 192 | 7.0 | 8.7 | 0.00 | 0.00 | 0.00 | 78 | 1011.1 |
| 20260506103548 | 57 | 168 | 8.7 | 8.7 | 0.00 | 0.00 | 0.00 | 77 | 1010.8 |
| 20260506103044 | 57 | 166 | 5.2 | 6.1 | 0.00 | 0.00 | 0.00 | 77 | 1011.1 |
| 20260506102543 | 58 | 184 | 4.3 | 7.0 | 0.00 | 0.00 | 0.00 | 76 | 1011.2 |
| 20260506102040 | 58 | 194 | 5.2 | 5.2 | 0.00 | 0.00 | 0.00 | 76 | 1011.0 |
| 20260506101536 | 58 | 194 | 5.2 | 6.1 | 0.00 | 0.00 | 0.00 | 76 | 1010.8 |
| 20260506101033 | 58 | 194 | 4.3 | 5.2 | 0.00 | 0.00 | 0.00 | 76 | 1010.9 |
| 20260506100532 | 58 | 197 | 3.5 | 5.2 | 0.00 | 0.00 | 0.00 | 76 | 1010.8 |
| 20260506100030 | 58 | 184 | 3.5 | 6.1 | 0.00 | 0.00 | 0.00 | 75 | 1010.9 |
| 20260506095528 | 58 | 187 | 6.1 | 7.8 | 0.00 | 0.00 | 0.00 | 75 | 1010.6 |
| 20260506095024 | 58 | 179 | 7.0 | 9.6 | 0.00 | 0.00 | 0.00 | 75 | 1010.7 |
| 20260506094522 | 58 | 176 | 7.0 | 8.7 | 0.00 | 0.00 | 0.00 | 75 | 1010.6 |
| 20260506094020 | 58 | 175 | 7.8 | 10.4 | 0.00 | 0.00 | 0.00 | 75 | 1010.5 |
| 20260506093518 | 58 | 172 | 7.8 | 7.8 | 0.00 | 0.00 | 0.00 | 75 | 1010.6 |
| 20260506093015 | 58 | 170 | 6.1 | 7.0 | 0.00 | 0.00 | 0.00 | 75 | 1010.5 |
| 20260506092513 | 58 | 171 | 7.0 | 7.8 | 0.00 | 0.00 | 0.00 | 74 | 1010.6 |
| 20260506092009 | 59 | 157 | 6.1 | 6.1 | 0.00 | 0.00 | 0.00 | 74 | 1010.6 |
| 20260506091508 | 59 | 172 | 6.1 | 7.0 | 0.00 | 0.00 | 0.00 | 72 | 1010.5 |
| 20260506091004 | 59 | 170 | 5.2 | 5.2 | 0.00 | 0.00 | 0.00 | 72 | 1010.6 |
| 20260506090503 | 60 | 192 | 4.3 | 6.1 | 0.00 | 0.00 | 0.00 | 71 | 1010.6 |
| 20260506085958 | 60 | 192 | 4.3 | 5.2 | 0.00 | 0.00 | 0.00 | 71 | 1010.6 |
| 20260506085455 | 60 | 172 | 4.3 | 6.1 | 0.00 | 0.00 | 0.00 | 71 | 1011.0 |
| 20260506084952 | 60 | 165 | 5.2 | 5.2 | 0.00 | 0.00 | 0.00 | 72 | 1010.7 |
| 20260506084449 | 59 | 191 | 4.3 | 4.3 | 0.00 | 0.00 | 0.00 | 74 | 1010.9 |
| 20260506083945 | 59 | 192 | 3.5 | 4.3 | 0.00 | 0.00 | 0.00 | 75 | 1010.9 |
| 20260506083442 | 60 | 212 | 4.3 | 5.2 | 0.00 | 0.00 | 0.00 | 74 | 1010.9 |
| 20260506082939 | 60 | 220 | 5.2 | 7.0 | 0.00 | 0.00 | 0.00 | 72 | 1010.6 |
| 20260506082436 | 60 | 245 | 5.2 | 5.2 | 0.00 | 0.00 | 0.00 | 72 | 1010.8 |
| 20260506081932 | 59 | 262 | 6.1 | 6.1 | 0.00 | 0.00 | 0.00 | 74 | 1010.8 |
| 20260506081431 | 59 | 285 | 4.3 | 5.2 | 0.00 | 0.00 | 0.00 | 75 | 1010.8 |
| 20260506080927 | 60 | 258 | 3.5 | 3.5 | 0.00 | 0.00 | 0.00 | 74 | 1010.8 |
| 20260506080424 | 60 | 268 | 3.5 | 3.5 | 0.00 | 0.00 | 0.00 | 73 | 1011.0 |
| 20260506073408 | 60 | 212 | 2.6 | 3.5 | 0.00 | 0.00 | 0.00 | 72 | 1010.8 |
| 20260506072905 | 60 | 208 | 2.6 | 4.3 | 0.00 | 0.00 | 0.00 | 72 | 1010.7 |
| 20260506072403 | 60 | 174 | 2.6 | 5.2 | 0.00 | 0.00 | 0.00 | 72 | 1010.7 |
| 20260506071900 | 61 | 167 | 1.7 | 4.3 | 0.00 | 0.00 | 0.00 | 72 | 1010.6 |
| 20260506071358 | 61 | 148 | 3.5 | 4.3 | 0.00 | 0.00 | 0.00 | 71 | 1010.6 |
| 20260506070854 | 61 | 186 | 3.5 | 8.7 | 0.00 | 0.00 | 0.00 | 72 | 1010.7 |
| 20260506070351 | 61 | 179 | 5.2 | 6.1 | 0.00 | 0.00 | 0.00 | 72 | 1010.4 |
| 20260506062329 | 61 | 209 | 3.5 | 5.2 | 0.00 | 0.00 | 0.00 | 74 | 1010.4 |
| 20260506061825 | 61 | 219 | 0.0 | 3.5 | 0.00 | 0.00 | 0.00 | 74 | 1010.7 |
| 20260506061322 | 61 | 196 | 1.7 | 4.3 | 0.00 | 0.00 | 0.00 | 74 | 1010.4 |
| 20260506060820 | 61 | 157 | 2.6 | 3.5 | 0.00 | 0.00 | 0.00 | 74 | 1010.5 |
| 20260506060318 | 61 | 128 | 5.2 | 7.0 | 0.00 | 0.00 | 0.00 | 74 | 1010.4 |
| 20260506051249 | 61 | 176 | 7.0 | 9.6 | 0.00 | 0.00 | 0.00 | 76 | 1010.3 |
| 20260506050747 | 61 | 162 | 5.2 | 7.8 | 0.00 | 0.00 | 0.00 | 76 | 1010.6 |
| 20260506050244 | 61 | 164 | 7.8 | 10.4 | 0.00 | 0.00 | 0.00 | 77 | 1010.5 |
| 20260506044735 | 61 | 185 | 7.0 | 9.6 | 0.00 | 0.00 | 0.00 | 77 | 1010.7 |
| 20260506044232 | 61 | 189 | 7.8 | 10.4 | 0.00 | 0.00 | 0.00 | 77 | 1010.7 |
| 20260506043730 | 61 | 168 | 7.0 | 10.4 | 0.00 | 0.00 | 0.00 | 78 | 1010.5 |
| 20260506043227 | 61 | 155 | 7.0 | 7.8 | 0.00 | 0.00 | 0.00 | 80 | 1010.6 |
| 20260506042725 | 60 | 156 | 7.0 | 8.7 | 0.00 | 0.00 | 0.00 | 81 | 1010.5 |
| 20260506042224 | 61 | 165 | 5.2 | 5.2 | 0.00 | 0.00 | 0.00 | 80 | 1010.4 |
| 20260506041722 | 61 | 151 | 2.6 | 2.6 | 0.00 | 0.00 | 0.00 | 79 | 1010.5 |
| 20260506041219 | 61 | 117 | 3.5 | 5.2 | 0.00 | 0.00 | 0.00 | 79 | 1010.3 |
| 20260506040716 | 61 | 101 | 3.5 | 6.1 | 0.00 | 0.00 | 0.00 | 79 | 1010.4 |
| 20260506040213 | 61 | 148 | 6.1 | 7.0 | 0.00 | 0.00 | 0.00 | 78 | 1010.4 |
| 20260506035709 | 61 | 154 | 6.1 | 8.7 | 0.00 | 0.02 | 0.02 | 79 | 1010.4 |
| 20260506035207 | 61 | 159 | 7.0 | 10.4 | 0.00 | 0.02 | 0.02 | 79 | 1010.5 |
| 20260506034703 | 61 | 165 | 7.8 | 8.7 | 0.00 | 0.02 | 0.02 | 80 | 1010.3 |
| 20260506034201 | 61 | 157 | 6.1 | 8.7 | 0.00 | 0.02 | 0.02 | 80 | 1010.5 |
| 20260506033658 | 61 | 117 | 4.3 | 7.8 | 0.00 | 0.02 | 0.02 | 80 | 1010.4 |
| 20260506033155 | 61 | 77 | 3.5 | 5.2 | 0.00 | 0.02 | 0.02 | 80 | 1010.6 |
| 20260506032652 | 61 | 100 | 3.5 | 3.5 | 0.00 | 0.02 | 0.02 | 79 | 1010.6 |
| 20260506032149 | 61 | 162 | 2.6 | 4.3 | 0.00 | 0.02 | 0.02 | 79 | 1010.6 |
| 20260506031645 | 61 | 155 | 5.2 | 7.0 | 0.00 | 0.02 | 0.02 | 78 | 1010.3 |
| 20260506031142 | 61 | 190 | 4.3 | 5.2 | 0.00 | 0.02 | 0.02 | 78 | 1010.4 |
| 20260506030641 | 62 | 170 | 7.0 | 7.8 | 0.00 | 0.02 | 0.02 | 77 | 1010.1 |
| 20260506030138 | 62 | 160 | 9.6 | 11.3 | 0.00 | 0.02 | 0.02 | 77 | 1010.1 |
| 20260506025635 | 61 | 169 | 7.8 | 12.2 | 0.00 | 0.02 | 0.02 | 78 | 1010.3 |
| 20260506025130 | 61 | 145 | 5.2 | 8.7 | 0.00 | 0.02 | 0.02 | 78 | 1010.5 |
| 20260506024628 | 61 | 156 | 5.2 | 5.2 | 0.00 | 0.02 | 0.02 | 77 | 1010.1 |
| 20260506024124 | 61 | 166 | 7.0 | 7.8 | 0.00 | 0.02 | 0.02 | 77 | 1010.1 |
| 20260506023621 | 62 | 186 | 7.8 | 9.6 | 0.00 | 0.02 | 0.02 | 76 | 1010.4 |
| 20260506023118 | 62 | 187 | 7.0 | 9.6 | 0.00 | 0.02 | 0.02 | 76 | 1010.4 |
| 20260506022615 | 62 | 193 | 5.2 | 7.0 | 0.00 | 0.02 | 0.02 | 76 | 1010.1 |
| 20260506022113 | 63 | 184 | 5.2 | 7.0 | 0.00 | 0.02 | 0.02 | 74 | 1010.1 |
| 20260506021610 | 62 | 186 | 5.2 | 6.1 | 0.00 | 0.02 | 0.02 | 74 | 1010.1 |
| 20260506021107 | 62 | 182 | 4.3 | 4.3 | 0.00 | 0.02 | 0.02 | 74 | 1010.4 |
| 20260506020604 | 63 | 173 | 3.5 | 7.8 | 0.00 | 0.02 | 0.02 | 74 | 1010.5 |
| 20260506015559 | 62 | 128 | 6.1 | 7.8 | 0.00 | 0.02 | 0.02 | 75 | 1010.6 |
| 20260506015056 | 62 | 110 | 2.6 | 7.8 | 0.00 | 0.02 | 0.02 | 76 | 1010.4 |
| 20260506014554 | 62 | 134 | 4.3 | 6.1 | 0.00 | 0.02 | 0.02 | 76 | 1010.4 |
| 20260506014049 | 62 | 129 | 2.6 | 7.0 | 0.00 | 0.02 | 0.02 | 75 | 1010.3 |
| 20260506013548 | 62 | 169 | 3.5 | 7.8 | 0.00 | 0.02 | 0.02 | 75 | 1010.4 |
| 20260506013044 | 62 | 131 | 5.2 | 7.8 | 0.00 | 0.02 | 0.02 | 74 | 1010.6 |
| 20260506012540 | 63 | 117 | 5.2 | 5.2 | 0.00 | 0.02 | 0.02 | 73 | 1010.4 |
| 20260506012037 | 63 | 184 | 3.5 | 5.2 | 0.00 | 0.02 | 0.02 | 72 | 1010.3 |
| 20260506011535 | 63 | 179 | 3.5 | 4.3 | 0.00 | 0.02 | 0.02 | 72 | 1010.5 |